Change the Weather History Date:

Wednesday, August 13, 2014

  Actual Average (KAPF) Record (KAPF)
Temperature  
Mean Temperature 86 °F 83 °F  
Max Temperature 93 °F 91 °F 96 °F (1990)
Min Temperature 78 °F 75 °F 71 °F (1961)
Degree Days  
Heating Degree Days 0 0  
Month to date heating degree days 0  
Since 1 June heating degree days 0  
Since 1 July heating degree days 0  
Cooling Degree Days 20 18  
Month to date cooling degree days 234  
Year to date cooling degree days 2328  
Since 1 June cooling degree days 1300  
Growing Degree Days 36 (Base 50)    
Moisture  
Dew Point 74 °F    
Average Humidity 69    
Maximum Humidity 89    
Minimum Humidity 52    
Precipitation  
Precipitation 0.01 in 0.28 in 2.48 in (1971)
Month to date precipitation 3.62  
Year to date precipitation 31.56  
Snow  
Snow 0.00 in - - ()
Month to date snowfall  
Since 1 June snowfall  
Since 1 July snowfall  
Snow Depth -    
Sea Level Pressure  
Sea Level Pressure 30.01 in    
Wind  
Wind Speed 5 mph (South)    
Max Wind Speed 14 mph    
Max Gust Speed 21 mph    
Visibility 10 miles    
Events Thunderstorm    
T = Trace of Precipitation, MM = Missing Value Source: NWS Daily Summary

Daily Weather History Graph

Daily Weather History Graph

Search for Another Location

Airport or City:

Trip Planner

Search our weather history database for the weather conditions in past years. The results will help you decide how hot, cold, wet, or windy it might be!

Date:

Astronomy

Aug. 13, 2014 Rise Set
Actual Time 6:58 AM EDT 8:04 PM EDT
Civil Twilight 6:34 AM EDT 8:28 PM EDT
Nautical Twilight 6:05 AM EDT 8:56 PM EDT
Astronomical Twilight 5:36 AM EDT 9:26 PM EDT
Moon 10:16 PM EDT (8/13) 10:00 AM EDT (8/13)
Length of Visible Light 13h 54m
Length of Day
13h 05m
Waning Gibbous, 88% of the Moon is Illuminated
Aug 13
Waning Gibbous
Aug 17
Last Quarter
Aug 25
New
Sep 2
First Quarter
Sep 8
Full

Hourly Weather History & Observations

Time (EDT) Temp. Heat Index Dew Point Humidity Pressure Visibility Wind Dir Wind Speed Gust Speed Precip Events Conditions
12:15 AM 82.4 °F 89.5 °F 75.2 °F 79% 30.02 in 10.0 mi Calm Calm - N/A   Clear
12:55 AM 82.4 °F 89.5 °F 75.2 °F 79% 30.02 in 10.0 mi Calm Calm - N/A   Clear
1:15 AM 80.6 °F 86.2 °F 75.2 °F 84% 30.02 in 10.0 mi East 4.6 mph - N/A   Clear
1:35 AM 80.6 °F 86.2 °F 75.2 °F 84% 30.01 in 10.0 mi East 6.9 mph - N/A   Clear
1:55 AM 80.6 °F 86.2 °F 75.2 °F 84% 30.01 in 10.0 mi East 4.6 mph - N/A   Partly Cloudy
2:15 AM 80.6 °F 86.2 °F 75.2 °F 84% 30.01 in 10.0 mi East 4.6 mph - N/A   Partly Cloudy
2:35 AM 80.6 °F 86.2 °F 75.2 °F 84% 30.00 in 10.0 mi ENE 3.5 mph - N/A   Clear
2:55 AM 78.8 °F - 75.2 °F 89% 30.00 in 10.0 mi ENE 3.5 mph - N/A   Clear
3:15 AM 78.8 °F - 75.2 °F 89% 30.00 in 10.0 mi East 4.6 mph - N/A   Scattered Clouds
3:35 AM 78.8 °F - 75.2 °F 89% 29.99 in 10.0 mi ESE 4.6 mph - N/A   Partly Cloudy
3:55 AM 78.8 °F - 75.2 °F 89% 29.99 in 10.0 mi Calm Calm - N/A   Clear
4:15 AM 78.8 °F - 75.2 °F 89% 29.99 in 10.0 mi ESE 4.6 mph - N/A   Clear
4:35 AM 78.8 °F - 73.4 °F 83% 29.99 in 10.0 mi ESE 4.6 mph - N/A   Clear
4:55 AM 78.8 °F - 73.4 °F 83% 29.99 in 10.0 mi SE 3.5 mph - N/A   Clear
5:15 AM 78.8 °F - 73.4 °F 83% 29.98 in 10.0 mi SE 3.5 mph - N/A   Clear
5:35 AM 78.8 °F - 73.4 °F 83% 29.99 in 10.0 mi ESE 5.8 mph - N/A   Clear
5:55 AM 78.8 °F - 73.4 °F 83% 29.99 in 10.0 mi ESE 4.6 mph - N/A   Partly Cloudy
6:15 AM 78.8 °F - 73.4 °F 83% 30.00 in 10.0 mi ESE 5.8 mph - N/A Thunderstorm Partly Cloudy
6:35 AM 78.8 °F - 73.4 °F 83% 30.01 in 10.0 mi ESE 6.9 mph - N/A   Scattered Clouds
6:55 AM 78.8 °F - 73.4 °F 83% 30.01 in 8.0 mi SE 9.2 mph - 0.01 in   Mostly Cloudy
7:15 AM 78.8 °F - 73.4 °F 83% 30.01 in 10.0 mi SE 13.8 mph 20.7 mph N/A Thunderstorm Mostly Cloudy
7:35 AM 78.8 °F - 73.4 °F 83% 30.02 in 10.0 mi ESE 9.2 mph - N/A Thunderstorm Scattered Clouds
9:35 AM 84.2 °F 94.1 °F 77.0 °F 79% 30.04 in 10.0 mi ESE 5.8 mph - N/A   Clear
10:15 AM 87.8 °F 97.6 °F 75.2 °F 66% 30.04 in 10.0 mi South 4.6 mph - N/A   Clear
10:35 AM 89.6 °F 98.2 °F 73.4 °F 59% 30.04 in 10.0 mi South 5.8 mph - N/A   Partly Cloudy
11:15 AM 89.6 °F 98.2 °F 73.4 °F 59% 30.05 in 10.0 mi SSW 8.1 mph - N/A   Partly Cloudy
11:35 AM 91.4 °F 100.1 °F 73.4 °F 55% 30.05 in 10.0 mi South 6.9 mph - N/A   Partly Cloudy
11:55 AM 91.4 °F 100.1 °F 73.4 °F 55% 30.04 in 10.0 mi SSW 9.2 mph - N/A   Clear
12:15 PM 91.4 °F 102.5 °F 75.2 °F 59% 30.04 in 10.0 mi SSW 10.4 mph - N/A   Partly Cloudy
12:35 PM 91.4 °F 102.5 °F 75.2 °F 59% 30.04 in 10.0 mi SW 6.9 mph - N/A   Mostly Cloudy
12:55 PM 93.2 °F 102.4 °F 73.4 °F 52% 30.04 in 10.0 mi SW 8.1 mph - N/A   Scattered Clouds
1:15 PM 91.4 °F 102.5 °F 75.2 °F 59% 30.03 in 10.0 mi SW 8.1 mph - N/A   Scattered Clouds
1:35 PM 93.2 °F 105.0 °F 75.2 °F 56% 30.03 in 10.0 mi SSW 8.1 mph 16.1 mph N/A   Scattered Clouds
1:55 PM 93.2 °F 105.0 °F 75.2 °F 56% 30.03 in 10.0 mi South 8.1 mph - N/A   Partly Cloudy
2:15 PM 93.2 °F 105.0 °F 75.2 °F 56% 30.02 in 10.0 mi SSW 12.7 mph 18.4 mph N/A   Clear
2:35 PM 93.2 °F 105.0 °F 75.2 °F 56% 30.02 in 10.0 mi South 10.4 mph 17.3 mph N/A   Partly Cloudy
2:55 PM 93.2 °F 105.0 °F 75.2 °F 56% 30.01 in 10.0 mi SSW 10.4 mph - N/A   Scattered Clouds
3:15 PM 93.2 °F 105.0 °F 75.2 °F 56% 30.01 in 10.0 mi SSW 9.2 mph 16.1 mph N/A   Partly Cloudy
3:35 PM 93.2 °F 102.4 °F 73.4 °F 52% 30.00 in 10.0 mi SW 5.8 mph - N/A   Clear
3:55 PM 91.4 °F 102.5 °F 75.2 °F 59% 30.00 in 10.0 mi SW 9.2 mph 16.1 mph N/A   Partly Cloudy
4:15 PM 93.2 °F 102.4 °F 73.4 °F 52% 30.01 in 10.0 mi SW 10.4 mph - N/A   Scattered Clouds
4:35 PM 93.2 °F 102.4 °F 73.4 °F 52% 30.00 in 10.0 mi SSW 8.1 mph - N/A   Partly Cloudy
4:55 PM 93.2 °F 102.4 °F 73.4 °F 52% 30.00 in 10.0 mi SSW 9.2 mph - N/A   Clear
5:15 PM 93.2 °F 105.0 °F 75.2 °F 56% 30.00 in 10.0 mi West 8.1 mph - N/A   Clear
5:35 PM 91.4 °F 102.5 °F 75.2 °F 59% 29.99 in 10.0 mi WSW 6.9 mph - N/A   Partly Cloudy
5:55 PM 91.4 °F 100.1 °F 73.4 °F 55% 29.99 in 10.0 mi WSW 6.9 mph - N/A   Clear
6:15 PM 91.4 °F 102.5 °F 75.2 °F 59% 29.99 in 10.0 mi WSW 4.6 mph - N/A   Partly Cloudy
6:35 PM 89.6 °F 99.8 °F 75.2 °F 62% 29.99 in 10.0 mi WSW 6.9 mph - N/A   Partly Cloudy
6:55 PM 89.6 °F 99.8 °F 75.2 °F 62% 29.99 in 10.0 mi West 8.1 mph - N/A   Partly Cloudy
7:15 PM 89.6 °F 98.2 °F 73.4 °F 59% 29.99 in 10.0 mi WSW 5.8 mph - N/A   Clear
7:35 PM 87.8 °F 97.6 °F 75.2 °F 66% 30.00 in 10.0 mi West 5.8 mph - N/A   Partly Cloudy
7:55 PM 87.8 °F 95.6 °F 73.4 °F 62% 30.00 in 10.0 mi West 5.8 mph - N/A   Partly Cloudy
8:15 PM 87.8 °F 95.6 °F 73.4 °F 62% 30.01 in 10.0 mi WNW 4.6 mph - N/A   Clear
8:55 PM 84.2 °F 90.9 °F 73.4 °F 70% 30.01 in 10.0 mi Calm Calm - N/A   Clear
9:35 PM 84.2 °F 92.3 °F 75.2 °F 74% 30.02 in 10.0 mi Calm Calm - N/A   Clear
9:55 PM 84.2 °F 92.3 °F 75.2 °F 74% 30.03 in 10.0 mi Calm Calm - N/A   Clear